Time,TemperatureF,DewpointF,PressureIn,WindDirection,WindDirectionDegrees,WindSpeedMPH,WindSpeedGustMPH,Humidity,HourlyPrecipIn,Conditions,Clouds,dailyrainin,SoftwareType,DateUTC
2013-04-29 00:03:00,56.4,52.3,29.58,North,358,1.0,1.0,86,0.00,,,0.00,Wunderground v.1.15,2013-04-29 05:03:00,
2013-04-29 00:08:00,56.1,52.0,29.58,NE,55,1.0,1.0,86,0.00,,,0.00,Wunderground v.1.15,2013-04-29 05:08:00,
2013-04-29 00:14:00,55.9,52.1,29.59,NE,49,0.0,1.0,87,0.00,,,0.00,Wunderground v.1.15,2013-04-29 05:14:00,
2013-04-29 00:19:00,55.7,52.2,29.59,NE,50,0.0,1.0,88,0.00,,,0.00,Wunderground v.1.15,2013-04-29 05:19:00,
2013-04-29 00:24:00,55.5,52.0,29.60,NE,49,0.0,1.0,88,0.00,,,0.00,Wunderground v.1.15,2013-04-29 05:24:00,
2013-04-29 00:29:00,55.3,51.8,29.60,NE,50,0.0,1.0,88,0.00,,,0.00,Wunderground v.1.15,2013-04-29 05:29:00,
2013-04-29 00:34:00,55.2,51.7,29.60,NE,49,0.0,1.0,88,0.00,,,0.00,Wunderground v.1.15,2013-04-29 05:34:00,
2013-04-29 00:40:00,55.0,51.5,29.61,NE,50,0.0,1.0,88,0.00,,,0.00,Wunderground v.1.15,2013-04-29 05:40:00,
2013-04-29 00:45:00,54.8,51.3,29.60,NE,50,0.0,1.0,88,0.00,,,0.00,Wunderground v.1.15,2013-04-29 05:45:00,
2013-04-29 00:50:00,54.6,51.1,29.61,NE,50,0.0,1.0,88,0.00,,,0.00,Wunderground v.1.15,2013-04-29 05:50:00,
2013-04-29 00:55:00,54.3,51.1,29.61,NE,50,0.0,1.0,89,0.00,,,0.00,Wunderground v.1.15,2013-04-29 05:55:00,
2013-04-29 01:00:00,53.9,50.7,29.61,NW,320,1.0,1.0,89,0.00,,,0.00,Wunderground v.1.15,2013-04-29 06:00:00,
2013-04-29 01:05:00,53.4,50.5,29.62,WNW,286,1.0,2.0,90,0.00,,,0.00,Wunderground v.1.15,2013-04-29 06:05:00,
2013-04-29 01:11:00,53.9,51.0,29.62,NW,309,1.0,2.0,90,0.00,,,0.00,Wunderground v.1.15,2013-04-29 06:11:00,
2013-04-29 01:16:00,54.5,51.0,29.62,West,267,0.0,2.0,88,0.00,,,0.00,Wunderground v.1.15,2013-04-29 06:16:00,
2013-04-29 01:21:00,54.8,51.3,29.62,NW,312,0.0,1.0,88,0.00,,,0.00,Wunderground v.1.15,2013-04-29 06:21:00,
2013-04-29 01:26:00,54.9,51.4,29.62,NW,313,0.0,1.0,88,0.00,,,0.00,Wunderground v.1.15,2013-04-29 06:26:00,
2013-04-29 01:31:00,54.7,51.2,29.62,NW,313,0.0,1.0,88,0.00,,,0.00,Wunderground v.1.15,2013-04-29 06:31:00,
2013-04-29 01:37:00,54.5,51.0,29.63,NW,311,0.0,1.0,88,0.00,,,0.00,Wunderground v.1.15,2013-04-29 06:37:00,
2013-04-29 01:42:00,54.5,51.3,29.63,NW,312,0.0,1.0,89,0.00,,,0.00,Wunderground v.1.15,2013-04-29 06:42:00,
2013-04-29 01:47:00,54.5,51.0,29.63,NW,311,0.0,1.0,88,0.00,,,0.00,Wunderground v.1.15,2013-04-29 06:47:00,
2013-04-29 01:52:00,54.4,50.9,29.63,NW,313,0.0,1.0,88,0.00,,,0.00,Wunderground v.1.15,2013-04-29 06:52:00,
2013-04-29 01:57:00,54.3,51.1,29.63,NW,313,0.0,1.0,89,0.00,,,0.00,Wunderground v.1.15,2013-04-29 06:57:00,
2013-04-29 02:03:00,54.1,50.9,29.63,NW,314,0.0,1.0,89,0.00,,,0.00,Wunderground v.1.15,2013-04-29 07:03:00,
2013-04-29 02:08:00,54.0,50.8,29.63,NW,314,0.0,1.0,89,0.00,,,0.00,Wunderground v.1.15,2013-04-29 07:08:00,
2013-04-29 02:13:00,53.7,50.8,29.63,NW,313,0.0,1.0,90,0.00,,,0.00,Wunderground v.1.15,2013-04-29 07:13:00,
2013-04-29 02:18:00,53.6,50.7,29.63,NW,313,0.0,1.0,90,0.00,,,0.00,Wunderground v.1.15,2013-04-29 07:18:00,
2013-04-29 02:23:00,53.6,50.7,29.63,NW,314,0.0,1.0,90,0.00,,,0.00,Wunderground v.1.15,2013-04-29 07:23:00,
2013-04-29 02:28:00,53.5,50.6,29.63,NW,314,0.0,1.0,90,0.00,,,0.00,Wunderground v.1.15,2013-04-29 07:28:00,
2013-04-29 02:34:00,53.5,50.6,29.63,NW,312,0.0,1.0,90,0.00,,,0.00,Wunderground v.1.15,2013-04-29 07:34:00,
2013-04-29 02:39:00,53.4,50.5,29.63,NW,311,0.0,1.0,90,0.00,,,0.00,Wunderground v.1.15,2013-04-29 07:39:00,
2013-04-29 02:44:00,53.3,50.4,29.63,NW,312,0.0,1.0,90,0.00,,,0.00,Wunderground v.1.15,2013-04-29 07:44:00,
2013-04-29 02:49:00,53.2,50.3,29.63,NW,312,0.0,1.0,90,0.00,,,0.00,Wunderground v.1.15,2013-04-29 07:49:00,
2013-04-29 02:54:00,53.3,50.1,29.63,NW,311,0.0,1.0,89,0.00,,,0.00,Wunderground v.1.15,2013-04-29 07:54:00,
2013-04-29 02:59:00,53.2,50.0,29.63,NW,311,0.0,1.0,89,0.00,,,0.00,Wunderground v.1.15,2013-04-29 07:59:00,
2013-04-29 03:04:00,53.0,49.8,29.63,NW,311,0.0,1.0,89,0.00,,,0.00,Wunderground v.1.15,2013-04-29 08:04:00,
2013-04-29 03:09:00,52.8,49.6,29.63,NW,312,0.0,1.0,89,0.00,,,0.00,Wunderground v.1.15,2013-04-29 08:09:00,
2013-04-29 03:14:00,52.5,49.4,29.63,NW,311,0.0,1.0,89,0.00,,,0.00,Wunderground v.1.15,2013-04-29 08:14:00,
2013-04-29 03:20:00,52.3,49.2,29.63,NW,314,0.0,1.0,89,0.00,,,0.00,Wunderground v.1.15,2013-04-29 08:20:00,
2013-04-29 03:25:00,52.5,49.0,29.63,East,88,0.0,1.0,88,0.00,,,0.00,Wunderground v.1.15,2013-04-29 08:25:00,
2013-04-29 03:30:00,52.8,49.0,29.63,East,87,0.0,1.0,87,0.00,,,0.00,Wunderground v.1.15,2013-04-29 08:30:00,
2013-04-29 03:35:00,52.7,48.9,29.63,East,88,0.0,1.0,87,0.00,,,0.00,Wunderground v.1.15,2013-04-29 08:35:00,
2013-04-29 03:40:00,52.5,48.7,29.63,East,88,0.0,1.0,87,0.00,,,0.00,Wunderground v.1.15,2013-04-29 08:40:00,
2013-04-29 03:46:00,52.5,48.4,29.64,East,87,0.0,1.0,86,0.00,,,0.00,Wunderground v.1.15,2013-04-29 08:46:00,
2013-04-29 03:51:00,52.5,48.4,29.64,East,88,0.0,1.0,86,0.00,,,0.00,Wunderground v.1.15,2013-04-29 08:51:00,
2013-04-29 03:56:00,52.5,48.4,29.64,ENE,70,0.0,1.0,86,0.00,,,0.00,Wunderground v.1.15,2013-04-29 08:56:00,
2013-04-29 04:01:00,52.3,48.2,29.64,NNE,20,0.0,1.0,86,0.00,,,0.00,Wunderground v.1.15,2013-04-29 09:01:00,
2013-04-29 04:06:00,52.2,48.1,29.64,NNE,20,0.0,1.0,86,0.00,,,0.00,Wunderground v.1.15,2013-04-29 09:06:00,
2013-04-29 04:11:00,52.2,47.8,29.64,NNE,20,0.0,1.0,85,0.00,,,0.00,Wunderground v.1.15,2013-04-29 09:11:00,
2013-04-29 04:17:00,52.2,47.8,29.64,NNE,20,0.0,1.0,85,0.00,,,0.00,Wunderground v.1.15,2013-04-29 09:17:00,
2013-04-29 04:22:00,52.2,47.8,29.64,NNE,20,0.0,1.0,85,0.00,,,0.00,Wunderground v.1.15,2013-04-29 09:22:00,
2013-04-29 04:27:00,52.1,47.7,29.64,NNE,20,0.0,1.0,85,0.00,,,0.00,Wunderground v.1.15,2013-04-29 09:27:00,
2013-04-29 04:32:00,52.1,47.7,29.64,NNE,23,1.0,1.0,85,0.00,,,0.00,Wunderground v.1.15,2013-04-29 09:32:00,
2013-04-29 04:37:00,52.0,47.6,29.64,East,79,1.0,2.0,85,0.00,,,0.00,Wunderground v.1.15,2013-04-29 09:37:00,
2013-04-29 04:43:00,52.0,47.6,29.64,NNE,12,1.0,2.0,85,0.00,,,0.00,Wunderground v.1.15,2013-04-29 09:43:00,
2013-04-29 04:48:00,52.0,47.3,29.64,NE,36,1.0,2.0,84,0.00,,,0.00,Wunderground v.1.15,2013-04-29 09:48:00,
2013-04-29 04:53:00,52.0,47.3,29.64,NNE,13,1.0,1.0,84,0.00,,,0.00,Wunderground v.1.15,2013-04-29 09:53:00,
2013-04-29 04:58:00,52.0,47.3,29.64,NNE,17,1.0,4.0,84,0.00,,,0.00,Wunderground v.1.15,2013-04-29 09:58:00,
2013-04-29 05:03:00,52.0,47.3,29.65,NNE,25,2.0,3.0,84,0.00,,,0.00,Wunderground v.1.15,2013-04-29 10:03:00,
2013-04-29 05:09:00,51.9,47.2,29.65,NE,40,2.0,3.0,84,0.00,,,0.00,Wunderground v.1.15,2013-04-29 10:09:00,
2013-04-29 05:14:00,51.8,46.8,29.65,North,357,1.0,2.0,83,0.00,,,0.00,Wunderground v.1.15,2013-04-29 10:14:00,
2013-04-29 05:19:00,51.7,47.0,29.65,NNE,23,1.0,3.0,84,0.00,,,0.00,Wunderground v.1.15,2013-04-29 10:19:00,
2013-04-29 05:24:00,51.6,46.9,29.65,NNE,19,1.0,1.0,84,0.00,,,0.00,Wunderground v.1.15,2013-04-29 10:24:00,
2013-04-29 05:29:00,51.4,46.4,29.65,NNE,19,2.0,2.0,83,0.00,,,0.00,Wunderground v.1.15,2013-04-29 10:29:00,
2013-04-29 05:35:00,51.4,46.1,29.65,East,98,2.0,3.0,82,0.00,,,0.00,Wunderground v.1.15,2013-04-29 10:35:00,
2013-04-29 05:40:00,51.2,45.6,29.65,ENE,59,2.0,2.0,81,0.00,,,0.00,Wunderground v.1.15,2013-04-29 10:40:00,
2013-04-29 05:45:00,51.2,45.6,29.65,NE,46,2.0,2.0,81,0.00,,,0.00,Wunderground v.1.15,2013-04-29 10:45:00,
2013-04-29 05:50:00,51.0,45.7,29.65,NNE,26,1.0,2.0,82,0.00,,,0.00,Wunderground v.1.15,2013-04-29 10:50:00,
2013-04-29 05:55:00,50.8,45.5,29.65,NNE,26,1.0,2.0,82,0.00,,,0.00,Wunderground v.1.15,2013-04-29 10:55:00,
2013-04-29 06:01:00,50.6,45.3,29.65,NNE,25,1.0,2.0,82,0.00,,,0.00,Wunderground v.1.15,2013-04-29 11:01:00,
2013-04-29 06:06:00,50.6,45.3,29.64,NNE,19,1.0,2.0,82,0.00,,,0.00,Wunderground v.1.15,2013-04-29 11:06:00,
2013-04-29 06:11:00,50.4,44.8,29.64,ENE,65,2.0,2.0,81,0.00,,,0.00,Wunderground v.1.15,2013-04-29 11:11:00,
2013-04-29 06:16:00,50.2,44.3,29.64,NE,46,2.0,3.0,80,0.00,,,0.00,Wunderground v.1.15,2013-04-29 11:16:00,
2013-04-29 06:21:00,50.1,43.5,29.64,NNE,32,2.0,3.0,78,0.00,,,0.00,Wunderground v.1.15,2013-04-29 11:21:00,
2013-04-29 06:26:00,50.1,42.8,29.64,NNE,27,2.0,3.0,76,0.00,,,0.00,Wunderground v.1.15,2013-04-29 11:26:00,
2013-04-29 06:31:00,50.1,42.5,29.64,NE,44,2.0,2.0,75,0.00,,,0.00,Wunderground v.1.15,2013-04-29 11:31:00,
2013-04-29 06:36:00,50.1,42.5,29.65,NNE,27,2.0,3.0,75,0.00,,,0.00,Wunderground v.1.15,2013-04-29 11:36:00,
2013-04-29 06:41:00,50.0,42.0,29.65,ENE,60,2.0,2.0,74,0.00,,,0.00,Wunderground v.1.15,2013-04-29 11:41:00,
2013-04-29 06:46:00,50.0,42.0,29.65,NNE,19,1.0,2.0,74,0.00,,,0.00,Wunderground v.1.15,2013-04-29 11:46:00,
2013-04-29 06:52:00,50.0,42.0,29.66,ENE,57,1.0,1.0,74,0.00,,,0.00,Wunderground v.1.15,2013-04-29 11:52:00,
2013-04-29 06:57:00,50.1,41.8,29.66,NNE,25,1.0,3.0,73,0.00,,,0.00,Wunderground v.1.15,2013-04-29 11:57:00,
2013-04-29 07:02:00,50.3,41.6,29.66,North,8,1.0,2.0,72,0.00,,,0.00,Wunderground v.1.15,2013-04-29 12:02:00,
2013-04-29 07:07:00,50.5,41.4,29.66,NNE,30,2.0,2.0,71,0.00,,,0.00,Wunderground v.1.15,2013-04-29 12:07:00,
2013-04-29 07:12:00,50.8,41.4,29.66,North,349,2.0,4.0,70,0.00,,,0.00,Wunderground v.1.15,2013-04-29 12:12:00,
2013-04-29 07:18:00,51.1,40.5,29.66,North,8,2.0,4.0,67,0.00,,,0.00,Wunderground v.1.15,2013-04-29 12:18:00,
2013-04-29 07:23:00,51.3,41.1,29.66,ENE,68,2.0,5.0,68,0.00,,,0.00,Wunderground v.1.15,2013-04-29 12:23:00,
2013-04-29 07:28:00,51.2,40.2,29.66,NE,51,2.0,5.0,66,0.00,,,0.00,Wunderground v.1.15,2013-04-29 12:28:00,
2013-04-29 07:33:00,51.2,40.2,29.66,NE,51,2.0,6.0,66,0.00,,,0.00,Wunderground v.1.15,2013-04-29 12:33:00,
2013-04-29 07:38:00,51.1,39.7,29.66,NNE,16,2.0,6.0,65,0.00,,,0.00,Wunderground v.1.15,2013-04-29 12:38:00,
2013-04-29 07:44:00,51.3,40.3,29.66,NNE,16,2.0,5.0,66,0.00,,,0.00,Wunderground v.1.15,2013-04-29 12:44:00,
2013-04-29 07:49:00,51.8,40.4,29.66,NE,51,2.0,5.0,65,0.00,,,0.00,Wunderground v.1.15,2013-04-29 12:49:00,
2013-04-29 07:54:00,52.0,39.8,29.66,NE,36,2.0,5.0,63,0.00,,,0.00,Wunderground v.1.15,2013-04-29 12:54:00,
2013-04-29 07:59:00,52.2,40.0,29.66,NNW,342,3.0,5.0,63,0.00,,,0.00,Wunderground v.1.15,2013-04-29 12:59:00,
2013-04-29 08:04:00,52.3,40.1,29.66,North,11,2.0,4.0,63,0.00,,,0.00,Wunderground v.1.15,2013-04-29 13:04:00,
2013-04-29 08:10:00,52.2,39.6,29.66,NNE,15,2.0,2.0,62,0.00,,,0.00,Wunderground v.1.15,2013-04-29 13:10:00,
2013-04-29 08:15:00,52.1,39.9,29.66,NNE,27,2.0,3.0,63,0.00,,,0.00,Wunderground v.1.15,2013-04-29 13:15:00,
2013-04-29 08:20:00,51.9,39.7,29.66,NNE,23,2.0,3.0,63,0.00,,,0.00,Wunderground v.1.15,2013-04-29 13:20:00,
2013-04-29 08:25:00,51.7,39.5,29.65,North,358,2.0,3.0,63,0.00,,,0.00,Wunderground v.1.15,2013-04-29 13:25:00,
2013-04-29 08:30:00,51.5,39.3,29.65,North,354,2.0,2.0,63,0.00,,,0.00,Wunderground v.1.15,2013-04-29 13:30:00,
2013-04-29 08:35:00,51.5,38.9,29.65,NNE,12,2.0,3.0,62,0.00,,,0.00,Wunderground v.1.15,2013-04-29 13:35:00,
2013-04-29 08:41:00,52.1,39.9,29.65,ENE,68,2.0,3.0,63,0.00,,,0.00,Wunderground v.1.15,2013-04-29 13:41:00,
2013-04-29 08:46:00,52.7,39.2,29.65,NNE,23,2.0,3.0,60,0.00,,,0.00,Wunderground v.1.15,2013-04-29 13:46:00,
2013-04-29 08:51:00,53.2,39.7,29.65,ENE,70,3.0,4.0,60,0.00,,,0.00,Wunderground v.1.15,2013-04-29 13:51:00,
2013-04-29 08:56:00,53.5,39.5,29.65,ENE,61,2.0,4.0,59,0.00,,,0.00,Wunderground v.1.15,2013-04-29 13:56:00,
2013-04-29 09:01:00,53.8,39.4,29.65,NE,44,3.0,4.0,58,0.00,,,0.00,Wunderground v.1.15,2013-04-29 14:01:00,
2013-04-29 09:07:00,54.3,39.4,29.65,NNE,25,3.0,4.0,57,0.00,,,0.00,Wunderground v.1.15,2013-04-29 14:07:00,
2013-04-29 09:12:00,54.9,40.4,29.64,North,11,2.0,3.0,58,0.00,,,0.00,Wunderground v.1.15,2013-04-29 14:12:00,
2013-04-29 09:17:00,55.3,40.8,29.64,NE,52,2.0,4.0,58,0.00,,,0.00,Wunderground v.1.15,2013-04-29 14:17:00,
2013-04-29 09:22:00,55.5,39.6,29.64,ENE,59,3.0,3.0,55,0.00,,,0.00,Wunderground v.1.15,2013-04-29 14:22:00,
2013-04-29 09:27:00,56.0,41.4,29.64,ENE,74,2.0,3.0,58,0.00,,,0.00,Wunderground v.1.15,2013-04-29 14:27:00,
2013-04-29 09:33:00,56.4,40.9,29.64,East,84,2.0,4.0,56,0.00,,,0.00,Wunderground v.1.15,2013-04-29 14:33:00,
2013-04-29 09:38:00,56.5,40.0,29.64,ENE,65,3.0,4.0,54,0.00,,,0.00,Wunderground v.1.15,2013-04-29 14:38:00,
2013-04-29 09:43:00,56.8,41.7,29.64,East,83,3.0,3.0,57,0.00,,,0.00,Wunderground v.1.15,2013-04-29 14:43:00,
2013-04-29 09:48:00,57.2,40.7,29.64,ESE,102,2.0,4.0,54,0.00,,,0.00,Wunderground v.1.15,2013-04-29 14:48:00,
2013-04-29 09:54:00,57.7,40.7,29.64,East,82,2.0,3.0,53,0.00,,,0.00,Wunderground v.1.15,2013-04-29 14:54:00,
2013-04-29 09:59:00,58.3,41.2,29.64,ENE,57,2.0,3.0,53,0.00,,,0.00,Wunderground v.1.15,2013-04-29 14:59:00,
2013-04-29 10:04:00,58.3,41.2,29.64,NE,53,2.0,3.0,53,0.00,,,0.00,Wunderground v.1.15,2013-04-29 15:04:00,
2013-04-29 10:09:00,58.5,40.9,29.63,ENE,60,2.0,4.0,52,0.00,,,0.00,Wunderground v.1.15,2013-04-29 15:09:00,
2013-04-29 10:14:00,58.7,41.6,29.63,ENE,72,2.0,2.0,53,0.00,,,0.00,Wunderground v.1.15,2013-04-29 15:14:00,
2013-04-29 10:20:00,59.0,41.4,29.63,ESE,113,2.0,2.0,52,0.00,,,0.00,Wunderground v.1.15,2013-04-29 15:20:00,
2013-04-29 10:25:00,59.8,42.1,29.63,ENE,77,2.0,2.0,52,0.00,,,0.00,Wunderground v.1.15,2013-04-29 15:25:00,
2013-04-29 10:30:00,60.0,42.8,29.62,ENE,73,2.0,2.0,53,0.00,,,0.00,Wunderground v.1.15,2013-04-29 15:30:00,
2013-04-29 10:35:00,60.4,42.2,29.62,North,349,2.0,3.0,51,0.00,,,0.00,Wunderground v.1.15,2013-04-29 15:35:00,
2013-04-29 10:40:00,60.7,42.5,29.62,NE,46,2.0,2.0,51,0.00,,,0.00,Wunderground v.1.15,2013-04-29 15:40:00,
2013-04-29 10:45:00,61.1,42.8,29.62,North,5,1.0,3.0,51,0.00,,,0.00,Wunderground v.1.15,2013-04-29 15:45:00,
2013-04-29 10:51:00,61.4,43.6,29.62,ENE,63,2.0,2.0,52,0.00,,,0.00,Wunderground v.1.15,2013-04-29 15:51:00,
2013-04-29 10:56:00,61.7,43.4,29.61,ESE,117,2.0,3.0,51,0.00,,,0.00,Wunderground v.1.15,2013-04-29 15:56:00,
2013-04-29 11:01:00,62.4,44.0,29.61,SSE,152,2.0,2.0,51,0.00,,,0.00,Wunderground v.1.15,2013-04-29 16:01:00,
2013-04-29 11:06:00,63.0,44.6,29.61,SW,224,1.0,2.0,51,0.00,,,0.00,Wunderground v.1.15,2013-04-29 16:06:00,
2013-04-29 11:11:00,63.6,44.6,29.61,SSW,193,1.0,1.0,50,0.00,,,0.00,Wunderground v.1.15,2013-04-29 16:11:00,
2013-04-29 11:17:00,63.7,45.2,29.61,NW,319,1.0,2.0,51,0.00,,,0.00,Wunderground v.1.15,2013-04-29 16:17:00,
2013-04-29 11:22:00,64.5,46.5,29.61,NNE,32,1.0,2.0,52,0.00,,,0.00,Wunderground v.1.15,2013-04-29 16:22:00,
2013-04-29 11:27:00,64.4,45.3,29.60,North,358,2.0,4.0,50,0.00,,,0.00,Wunderground v.1.15,2013-04-29 16:27:00,
2013-04-29 11:32:00,64.7,46.1,29.60,SW,220,2.0,2.0,51,0.00,,,0.00,Wunderground v.1.15,2013-04-29 16:32:00,
2013-04-29 11:37:00,65.6,46.5,29.60,SSE,162,1.0,4.0,50,0.00,,,0.00,Wunderground v.1.15,2013-04-29 16:37:00,
2013-04-29 11:43:00,66.0,46.3,29.60,North,356,2.0,4.0,49,0.00,,,0.00,Wunderground v.1.15,2013-04-29 16:43:00,
2013-04-29 11:48:00,66.2,46.5,29.60,SW,229,1.0,4.0,49,0.00,,,0.00,Wunderground v.1.15,2013-04-29 16:48:00,
2013-04-29 11:53:00,66.3,47.1,29.60,East,82,1.0,3.0,50,0.00,,,0.00,Wunderground v.1.15,2013-04-29 16:53:00,
2013-04-29 11:58:00,66.5,47.8,29.60,WSW,258,2.0,3.0,51,0.00,,,0.00,Wunderground v.1.15,2013-04-29 16:58:00,
2013-04-29 12:03:00,66.8,48.1,29.60,ESE,108,2.0,2.0,51,0.00,,,0.00,Wunderground v.1.15,2013-04-29 17:03:00,
2013-04-29 12:09:00,67.2,47.9,29.60,SSE,155,1.0,2.0,50,0.00,,,0.00,Wunderground v.1.15,2013-04-29 17:09:00,
2013-04-29 12:14:00,67.6,48.3,29.59,NE,45,2.0,3.0,50,0.00,,,0.00,Wunderground v.1.15,2013-04-29 17:14:00,
2013-04-29 12:19:00,68.0,48.1,29.59,NNE,23,2.0,4.0,49,0.00,,,0.00,Wunderground v.1.15,2013-04-29 17:19:00,
2013-04-29 12:24:00,67.9,48.0,29.59,SSW,211,2.0,2.0,49,0.00,,,0.00,Wunderground v.1.15,2013-04-29 17:24:00,
2013-04-29 12:29:00,68.1,48.8,29.58,NE,39,2.0,3.0,50,0.00,,,0.00,Wunderground v.1.15,2013-04-29 17:29:00,
2013-04-29 12:34:00,68.1,48.2,29.58,ENE,68,2.0,4.0,49,0.00,,,0.00,Wunderground v.1.15,2013-04-29 17:34:00,
2013-04-29 12:39:00,68.6,48.1,29.58,South,182,2.0,2.0,48,0.00,,,0.00,Wunderground v.1.15,2013-04-29 17:39:00,
2013-04-29 12:44:00,69.2,48.7,29.58,East,82,1.0,2.0,48,0.00,,,0.00,Wunderground v.1.15,2013-04-29 17:44:00,
2013-04-29 12:49:00,69.0,47.9,29.58,SSE,162,2.0,4.0,47,0.00,,,0.00,Wunderground v.1.15,2013-04-29 17:49:00,
2013-04-29 12:54:00,69.4,48.3,29.57,NNE,16,3.0,4.0,47,0.00,,,0.00,Wunderground v.1.15,2013-04-29 17:54:00,
2013-04-29 13:00:00,70.0,48.8,29.57,East,100,2.0,2.0,47,0.00,,,0.00,Wunderground v.1.15,2013-04-29 18:00:00,
2013-04-29 13:05:00,70.2,48.4,29.57,WNW,300,2.0,6.0,46,0.00,,,0.00,Wunderground v.1.15,2013-04-29 18:05:00,
2013-04-29 13:10:00,70.0,48.3,29.57,ESE,122,3.0,3.0,46,0.00,,,0.00,Wunderground v.1.15,2013-04-29 18:10:00,
2013-04-29 13:15:00,69.9,48.2,29.57,NE,50,3.0,7.0,46,0.00,,,0.00,Wunderground v.1.15,2013-04-29 18:15:00,
2013-04-29 13:20:00,69.9,50.4,29.56,NE,50,2.0,3.0,50,0.00,,,0.00,Wunderground v.1.15,2013-04-29 18:20:00,
2013-04-29 13:26:00,70.1,48.4,29.56,NNE,20,3.0,6.0,46,0.00,,,0.00,Wunderground v.1.15,2013-04-29 18:26:00,
2013-04-29 13:31:00,70.1,48.9,29.56,NE,52,3.0,6.0,47,0.00,,,0.00,Wunderground v.1.15,2013-04-29 18:31:00,
2013-04-29 13:36:00,70.1,48.4,29.55,NNW,347,3.0,6.0,46,0.00,,,0.00,Wunderground v.1.15,2013-04-29 18:36:00,
2013-04-29 13:41:00,70.0,48.8,29.55,ENE,75,3.0,3.0,47,0.00,,,0.00,Wunderground v.1.15,2013-04-29 18:41:00,
2013-04-29 13:46:00,70.0,48.8,29.55,SW,219,3.0,4.0,47,0.00,,,0.00,Wunderground v.1.15,2013-04-29 18:46:00,
2013-04-29 13:52:00,70.8,49.0,29.55,NE,49,2.0,4.0,46,0.00,,,0.00,Wunderground v.1.15,2013-04-29 18:52:00,
2013-04-29 13:57:00,71.0,49.7,29.55,ESE,103,2.0,7.0,47,0.00,,,0.00,Wunderground v.1.15,2013-04-29 18:57:00,
2013-04-29 14:02:00,71.6,49.7,29.55,SSE,148,2.0,2.0,46,0.00,,,0.00,Wunderground v.1.15,2013-04-29 19:02:00,
2013-04-29 14:07:00,72.1,49.0,29.54,NE,46,2.0,8.0,44,0.00,,,0.00,Wunderground v.1.15,2013-04-29 19:07:00,
2013-04-29 14:12:00,71.7,49.8,29.54,NNE,25,3.0,5.0,46,0.00,,,0.00,Wunderground v.1.15,2013-04-29 19:12:00,
2013-04-29 14:18:00,71.6,50.3,29.54,West,277,3.0,5.0,47,0.00,,,0.00,Wunderground v.1.15,2013-04-29 19:18:00,
2013-04-29 14:23:00,72.0,49.5,29.54,WNW,293,2.0,3.0,45,0.00,,,0.00,Wunderground v.1.15,2013-04-29 19:23:00,
2013-04-29 14:28:00,72.4,49.3,29.53,West,278,2.0,3.0,44,0.00,,,0.00,Wunderground v.1.15,2013-04-29 19:28:00,
2013-04-29 14:33:00,72.3,48.5,29.53,NE,54,2.0,5.0,43,0.00,,,0.00,Wunderground v.1.15,2013-04-29 19:33:00,
2013-04-29 14:38:00,72.1,49.6,29.53,WSW,249,3.0,5.0,45,0.00,,,0.00,Wunderground v.1.15,2013-04-29 19:38:00,
2013-04-29 14:43:00,72.5,48.7,29.53,North,357,2.0,4.0,43,0.00,,,0.00,Wunderground v.1.15,2013-04-29 19:43:00,
2013-04-29 14:49:00,72.0,49.5,29.53,East,94,3.0,5.0,45,0.00,,,0.00,Wunderground v.1.15,2013-04-29 19:49:00,
2013-04-29 14:54:00,71.9,50.6,29.52,NE,38,3.0,7.0,47,0.00,,,0.00,Wunderground v.1.15,2013-04-29 19:54:00,
2013-04-29 14:59:00,71.7,49.8,29.52,WNW,294,4.0,7.0,46,0.00,,,0.00,Wunderground v.1.15,2013-04-29 19:59:00,
2013-04-29 15:05:00,72.3,52.1,29.52,ENE,59,3.0,4.0,49,0.00,,,0.00,Wunderground v.1.15,2013-04-29 20:05:00,
2013-04-29 15:10:00,72.5,51.1,29.51,ESE,107,2.0,2.0,47,0.00,,,0.00,Wunderground v.1.15,2013-04-29 20:10:00,
2013-04-29 15:15:00,72.9,52.1,29.51,East,92,2.0,2.0,48,0.00,,,0.00,Wunderground v.1.15,2013-04-29 20:15:00,
2013-04-29 15:20:00,73.3,53.0,29.51,ENE,62,2.0,2.0,49,0.00,,,0.00,Wunderground v.1.15,2013-04-29 20:20:00,
2013-04-29 15:25:00,73.3,51.8,29.50,ENE,60,2.0,4.0,47,0.00,,,0.00,Wunderground v.1.15,2013-04-29 20:25:00,
2013-04-29 15:30:00,73.2,51.2,29.50,West,274,2.0,2.0,46,0.00,,,0.00,Wunderground v.1.15,2013-04-29 20:30:00,
2013-04-29 15:35:00,73.3,51.8,29.50,ESE,105,2.0,4.0,47,0.00,,,0.00,Wunderground v.1.15,2013-04-29 20:35:00,
2013-04-29 15:40:00,73.2,51.2,29.50,SW,227,2.0,2.0,46,0.00,,,0.00,Wunderground v.1.15,2013-04-29 20:40:00,
2013-04-29 15:46:00,73.2,51.8,29.50,ENE,63,2.0,3.0,47,0.00,,,0.00,Wunderground v.1.15,2013-04-29 20:46:00,
2013-04-29 15:51:00,73.7,51.0,29.50,NNE,20,2.0,2.0,45,0.00,,,0.00,Wunderground v.1.15,2013-04-29 20:51:00,
2013-04-29 15:56:00,74.1,50.2,29.49,East,95,2.0,2.0,43,0.00,,,0.00,Wunderground v.1.15,2013-04-29 20:56:00,
2013-04-29 16:01:00,74.3,51.6,29.49,ENE,71,2.0,3.0,45,0.00,,,0.00,Wunderground v.1.15,2013-04-29 21:01:00,
2013-04-29 16:06:00,74.0,51.3,29.49,WSW,256,2.0,4.0,45,0.00,,,0.00,Wunderground v.1.15,2013-04-29 21:06:00,
2013-04-29 16:12:00,74.2,50.3,29.49,WSW,255,2.0,5.0,43,0.00,,,0.00,Wunderground v.1.15,2013-04-29 21:12:00,
2013-04-29 16:17:00,74.2,50.3,29.49,West,266,2.0,5.0,43,0.00,,,0.00,Wunderground v.1.15,2013-04-29 21:17:00,
2013-04-29 16:22:00,74.5,51.2,29.49,WSW,238,2.0,2.0,44,0.00,,,0.00,Wunderground v.1.15,2013-04-29 21:22:00,
2013-04-29 16:27:00,74.6,51.2,29.49,ESE,102,2.0,3.0,44,0.00,,,0.00,Wunderground v.1.15,2013-04-29 21:27:00,
2013-04-29 16:32:00,74.6,51.2,29.49,SE,131,2.0,2.0,44,0.00,,,0.00,Wunderground v.1.15,2013-04-29 21:32:00,
2013-04-29 16:38:00,74.2,50.9,29.49,SE,139,2.0,3.0,44,0.00,,,0.00,Wunderground v.1.15,2013-04-29 21:38:00,
2013-04-29 16:43:00,74.1,52.0,29.49,ENE,59,2.0,4.0,46,0.00,,,0.00,Wunderground v.1.15,2013-04-29 21:43:00,
2013-04-29 16:48:00,74.1,52.0,29.49,ESE,102,2.0,4.0,46,0.00,,,0.00,Wunderground v.1.15,2013-04-29 21:48:00,
2013-04-29 16:53:00,74.4,52.3,29.48,ENE,75,1.0,2.0,46,0.00,,,0.00,Wunderground v.1.15,2013-04-29 21:53:00,
2013-04-29 16:58:00,73.8,52.9,29.48,ENE,61,1.0,4.0,48,0.00,,,0.00,Wunderground v.1.15,2013-04-29 21:58:00,
2013-04-29 17:03:00,73.5,53.7,29.47,SSW,208,2.0,2.0,50,0.00,,,0.00,Wunderground v.1.15,2013-04-29 22:03:00,
2013-04-29 17:09:00,74.4,53.4,29.48,WSW,252,1.0,2.0,48,0.00,,,0.00,Wunderground v.1.15,2013-04-29 22:09:00,
2013-04-29 17:14:00,74.4,52.9,29.47,WSW,240,2.0,4.0,47,0.00,,,0.00,Wunderground v.1.15,2013-04-29 22:14:00,
2013-04-29 17:19:00,74.2,52.7,29.47,SSW,207,2.0,4.0,47,0.00,,,0.00,Wunderground v.1.15,2013-04-29 22:19:00,
2013-04-29 17:24:00,74.7,53.1,29.47,NE,46,1.0,2.0,47,0.00,,,0.00,Wunderground v.1.15,2013-04-29 22:24:00,
2013-04-29 17:29:00,75.0,53.4,29.47,North,360,1.0,2.0,47,0.00,,,0.00,Wunderground v.1.15,2013-04-29 22:29:00,
2013-04-29 17:35:00,74.5,53.5,29.47,East,82,1.0,3.0,48,0.00,,,0.00,Wunderground v.1.15,2013-04-29 22:35:00,
2013-04-29 17:40:00,74.2,53.2,29.47,SW,233,1.0,1.0,48,0.00,,,0.00,Wunderground v.1.15,2013-04-29 22:40:00,
2013-04-29 17:45:00,74.4,53.4,29.47,West,269,1.0,4.0,48,0.00,,,0.00,Wunderground v.1.15,2013-04-29 22:45:00,
2013-04-29 17:50:00,74.6,54.2,29.47,WSW,256,2.0,2.0,49,0.00,,,0.00,Wunderground v.1.15,2013-04-29 22:50:00,
2013-04-29 17:55:00,74.5,53.5,29.46,WNW,288,2.0,2.0,48,0.00,,,0.00,Wunderground v.1.15,2013-04-29 22:55:00,
2013-04-29 18:01:00,73.9,53.5,29.46,WSW,240,2.0,2.0,49,0.00,,,0.00,Wunderground v.1.15,2013-04-29 23:01:00,
2013-04-29 18:06:00,73.7,53.9,29.46,SE,141,2.0,4.0,50,0.00,,,0.00,Wunderground v.1.15,2013-04-29 23:06:00,
2013-04-29 18:11:00,74.0,54.2,29.46,SSW,200,1.0,1.0,50,0.00,,,0.00,Wunderground v.1.15,2013-04-29 23:11:00,
2013-04-29 18:16:00,74.6,54.2,29.45,South,191,1.0,1.0,49,0.00,,,0.00,Wunderground v.1.15,2013-04-29 23:16:00,
2013-04-29 18:21:00,75.0,54.5,29.45,WSW,253,1.0,2.0,49,0.00,,,0.00,Wunderground v.1.15,2013-04-29 23:21:00,
2013-04-29 18:27:00,75.3,53.7,29.45,SSE,156,1.0,2.0,47,0.00,,,0.00,Wunderground v.1.15,2013-04-29 23:27:00,
2013-04-29 18:32:00,75.2,54.2,29.45,ENE,71,1.0,2.0,48,0.00,,,0.00,Wunderground v.1.15,2013-04-29 23:32:00,
2013-04-29 18:37:00,74.9,53.9,29.44,South,169,1.0,2.0,48,0.00,,,0.00,Wunderground v.1.15,2013-04-29 23:37:00,
2013-04-29 18:42:00,74.6,53.6,29.44,SSE,161,1.0,1.0,48,0.00,,,0.00,Wunderground v.1.15,2013-04-29 23:42:00,
2013-04-29 18:47:00,74.4,53.4,29.44,WSW,249,1.0,2.0,48,0.00,,,0.00,Wunderground v.1.15,2013-04-29 23:47:00,
2013-04-29 18:52:00,74.1,54.3,29.44,WSW,240,1.0,1.0,50,0.00,,,0.00,Wunderground v.1.15,2013-04-29 23:52:00,
2013-04-29 18:57:00,73.9,54.1,29.44,WSW,257,1.0,2.0,50,0.00,,,0.00,Wunderground v.1.15,2013-04-29 23:57:00,
2013-04-29 19:02:00,73.7,53.9,29.44,ENE,76,1.0,2.0,50,0.00,,,0.00,Wunderground v.1.15,2013-04-30 00:02:00,
2013-04-29 19:07:00,73.6,54.4,29.44,West,273,0.0,2.0,51,0.00,,,0.00,Wunderground v.1.15,2013-04-30 00:07:00,
2013-04-29 19:12:00,73.7,54.4,29.43,WSW,252,0.0,2.0,51,0.00,,,0.00,Wunderground v.1.15,2013-04-30 00:12:00,
2013-04-29 19:18:00,73.8,54.5,29.43,SE,124,0.0,2.0,51,0.00,,,0.00,Wunderground v.1.15,2013-04-30 00:18:00,
2013-04-29 19:24:00,73.8,54.5,29.44,SE,141,0.0,1.0,51,0.00,,,0.00,Wunderground v.1.15,2013-04-30 00:24:00,
2013-04-29 19:29:00,73.7,54.4,29.44,WSW,256,0.0,1.0,51,0.00,,,0.00,Wunderground v.1.15,2013-04-30 00:29:00,
2013-04-29 19:34:00,73.3,54.6,29.44,WSW,248,0.0,1.0,52,0.00,,,0.00,Wunderground v.1.15,2013-04-30 00:34:00,
2013-04-29 19:40:00,72.7,54.6,29.43,WSW,237,0.0,1.0,53,0.00,,,0.00,Wunderground v.1.15,2013-04-30 00:40:00,
2013-04-29 19:46:00,72.1,54.0,29.43,SW,236,0.0,1.0,53,0.00,,,0.00,Wunderground v.1.15,2013-04-30 00:46:00,
2013-04-29 19:51:00,71.5,54.5,29.43,SW,236,0.0,1.0,55,0.00,,,0.00,Wunderground v.1.15,2013-04-30 00:51:00,
2013-04-29 19:56:00,70.9,54.9,29.43,SW,236,0.0,1.0,57,0.00,,,0.00,Wunderground v.1.15,2013-04-30 00:56:00,
2013-04-29 20:02:00,70.2,54.7,29.43,ESE,105,0.0,1.0,58,0.00,,,0.00,Wunderground v.1.15,2013-04-30 01:02:00,
2013-04-29 20:07:00,69.7,54.7,29.43,ESE,105,0.0,1.0,59,0.00,,,0.00,Wunderground v.1.15,2013-04-30 01:07:00,
2013-04-29 20:12:00,69.4,55.4,29.43,ESE,105,0.0,1.0,61,0.00,,,0.00,Wunderground v.1.15,2013-04-30 01:12:00,
2013-04-29 20:18:00,69.2,55.6,29.44,ESE,104,0.0,1.0,62,0.00,,,0.00,Wunderground v.1.15,2013-04-30 01:18:00,
2013-04-29 20:23:00,68.9,56.6,29.44,ESE,120,0.0,1.0,65,0.00,,,0.00,Wunderground v.1.15,2013-04-30 01:23:00,
2013-04-29 20:28:00,68.5,56.3,29.43,ESE,107,0.0,1.0,65,0.00,,,0.00,Wunderground v.1.15,2013-04-30 01:28:00,
2013-04-29 20:33:00,68.1,57.1,29.43,NE,36,0.0,2.0,68,0.00,,,0.00,Wunderground v.1.15,2013-04-30 01:33:00,
2013-04-29 20:38:00,67.7,56.8,29.43,ESE,104,0.0,2.0,68,0.00,,,0.00,Wunderground v.1.15,2013-04-30 01:38:00,
2013-04-29 20:44:00,67.3,57.6,29.43,ESE,103,0.0,1.0,71,0.00,,,0.00,Wunderground v.1.15,2013-04-30 01:44:00,
2013-04-29 20:49:00,67.0,57.7,29.43,SSE,167,0.0,1.0,72,0.00,,,0.00,Wunderground v.1.15,2013-04-30 01:49:00,
2013-04-29 20:54:00,66.7,57.8,29.44,SE,131,0.0,2.0,73,0.00,,,0.00,Wunderground v.1.15,2013-04-30 01:54:00,
2013-04-29 20:59:00,66.6,57.7,29.44,SE,138,0.0,2.0,73,0.00,,,0.00,Wunderground v.1.15,2013-04-30 01:59:00,
2013-04-29 21:04:00,66.3,57.8,29.44,ESE,103,0.0,1.0,74,0.00,,,0.00,Wunderground v.1.15,2013-04-30 02:04:00,
2013-04-29 21:10:00,65.9,57.7,29.44,ESE,120,0.0,1.0,75,0.00,,,0.00,Wunderground v.1.15,2013-04-30 02:10:00,
2013-04-29 21:15:00,65.7,57.6,29.44,SE,137,0.0,1.0,75,0.00,,,0.00,Wunderground v.1.15,2013-04-30 02:15:00,
2013-04-29 21:20:00,65.5,57.7,29.44,East,101,0.0,1.0,76,0.00,,,0.00,Wunderground v.1.15,2013-04-30 02:20:00,
2013-04-29 21:25:00,65.2,57.4,29.44,ESE,102,0.0,1.0,76,0.00,,,0.00,Wunderground v.1.15,2013-04-30 02:25:00,
2013-04-29 21:30:00,65.0,57.6,29.44,East,101,0.0,1.0,77,0.00,,,0.00,Wunderground v.1.15,2013-04-30 02:30:00,
2013-04-29 21:36:00,64.7,57.7,29.43,ENE,73,0.0,1.0,78,0.00,,,0.00,Wunderground v.1.15,2013-04-30 02:36:00,
2013-04-29 21:42:00,64.3,57.3,29.43,East,90,1.0,1.0,78,0.00,,,0.00,Wunderground v.1.15,2013-04-30 02:42:00,
2013-04-29 21:47:00,64.1,57.5,29.43,NW,306,0.0,1.0,79,0.00,,,0.00,Wunderground v.1.15,2013-04-30 02:47:00,
2013-04-29 21:52:00,63.9,57.3,29.42,NNE,32,0.0,1.0,79,0.00,,,0.00,Wunderground v.1.15,2013-04-30 02:52:00,
2013-04-29 21:58:00,63.8,57.5,29.42,SSE,153,0.0,1.0,80,0.00,,,0.00,Wunderground v.1.15,2013-04-30 02:58:00,
2013-04-29 22:03:00,63.7,57.4,29.43,SW,222,0.0,1.0,80,0.00,,,0.00,Wunderground v.1.15,2013-04-30 03:03:00,
2013-04-29 22:08:00,63.7,57.4,29.42,WSW,245,0.0,1.0,80,0.00,,,0.00,Wunderground v.1.15,2013-04-30 03:08:00,
2013-04-29 22:13:00,63.6,57.7,29.42,West,264,0.0,1.0,81,0.00,,,0.00,Wunderground v.1.15,2013-04-30 03:13:00,
2013-04-29 22:18:00,63.5,57.6,29.42,East,89,0.0,1.0,81,0.00,,,0.00,Wunderground v.1.15,2013-04-30 03:18:00,
2013-04-29 22:24:00,63.3,57.4,29.42,ESE,113,0.0,2.0,81,0.00,,,0.00,Wunderground v.1.15,2013-04-30 03:24:00,
2013-04-29 22:29:00,63.1,57.2,29.42,ESE,108,0.0,2.0,81,0.00,,,0.00,Wunderground v.1.15,2013-04-30 03:29:00,
2013-04-29 22:34:00,63.0,57.4,29.42,NW,304,0.0,1.0,82,0.00,,,0.00,Wunderground v.1.15,2013-04-30 03:34:00,
2013-04-29 22:39:00,62.9,57.0,29.42,NNE,29,0.0,1.0,81,0.00,,,0.00,Wunderground v.1.15,2013-04-30 03:39:00,
2013-04-29 22:44:00,62.7,57.1,29.42,ESE,110,0.0,1.0,82,0.00,,,0.00,Wunderground v.1.15,2013-04-30 03:44:00,
2013-04-29 22:50:00,62.5,56.9,29.42,ESE,105,0.0,2.0,82,0.00,,,0.00,Wunderground v.1.15,2013-04-30 03:50:00,
2013-04-29 22:55:00,62.5,56.9,29.42,NNW,328,0.0,2.0,82,0.00,,,0.00,Wunderground v.1.15,2013-04-30 03:55:00,
2013-04-29 23:00:00,62.4,56.8,29.41,NE,41,0.0,1.0,82,0.00,,,0.00,Wunderground v.1.15,2013-04-30 04:00:00,
2013-04-29 23:01:00,62.3,56.7,29.41,NE,41,0.0,1.0,82,0.00,,,0.00,Wunderground v.1.15,2013-04-30 04:01:00,
2013-04-29 23:02:00,62.2,56.6,29.41,NE,41,0.0,1.0,82,0.00,,,0.00,Wunderground v.1.15,2013-04-30 04:02:00,
2013-04-29 23:03:00,62.2,56.6,29.41,NE,41,0.0,1.0,82,0.00,,,0.00,Wunderground v.1.15,2013-04-30 04:03:00,
2013-04-29 23:04:00,62.1,56.9,29.41,NE,41,0.0,1.0,83,0.00,,,0.00,Wunderground v.1.15,2013-04-30 04:04:00,
2013-04-29 23:07:00,62.0,56.8,29.41,ENE,77,0.0,1.0,83,0.00,,,0.00,Wunderground v.1.15,2013-04-30 04:07:00,
2013-04-29 23:12:00,61.8,56.6,29.41,ESE,104,0.0,1.0,83,0.00,,,0.00,Wunderground v.1.15,2013-04-30 04:12:00,
2013-04-29 23:17:00,61.7,56.8,29.41,ESE,104,0.0,1.0,84,0.00,,,0.00,Wunderground v.1.15,2013-04-30 04:17:00,
2013-04-29 23:22:00,61.7,56.8,29.40,ESE,104,0.0,1.0,84,0.00,,,0.00,Wunderground v.1.15,2013-04-30 04:22:00,
2013-04-29 23:27:00,61.6,56.7,29.40,East,80,0.0,1.0,84,0.00,,,0.00,Wunderground v.1.15,2013-04-30 04:27:00,
2013-04-29 23:33:00,61.5,56.6,29.40,East,86,0.0,1.0,84,0.00,,,0.00,Wunderground v.1.15,2013-04-30 04:33:00,
2013-04-29 23:38:00,61.5,56.9,29.40,ENE,57,0.0,1.0,85,0.00,,,0.00,Wunderground v.1.15,2013-04-30 04:38:00,
2013-04-29 23:43:00,61.6,56.7,29.40,NE,56,0.0,1.0,84,0.00,,,0.00,Wunderground v.1.15,2013-04-30 04:43:00,
2013-04-29 23:48:00,61.7,56.8,29.40,SE,128,0.0,2.0,84,0.00,,,0.00,Wunderground v.1.15,2013-04-30 04:48:00,
2013-04-29 23:53:00,61.7,56.8,29.39,ESE,120,0.0,1.0,84,0.00,,,0.00,Wunderground v.1.15,2013-04-30 04:53:00,
2013-04-29 23:59:00,61.8,56.9,29.39,ESE,116,0.0,1.0,84,0.00,,,0.00,Wunderground v.1.15,2013-04-30 04:59:00,